Powrót do katalogu

STARLINK-36255

AktywnyŁącznośćVLEO
NORAD 67102·PAYLOAD·🇺🇸 United States

Wystrzelony Dec 15, 2025 z Cape Canaveral Space Force Station

Loading…

Następne Przeloty (najbliższe 24 godziny)

TLE

ŚwieżeSource: CelesTrak SupGP

Epoka: Sep 15, 2026, 02:39 UTC

1 67102C 25299A   26258.11090278  .00657630  00000+0  19445-1 0  2582
2 67102  43.0012 179.0997 0001472 271.0513 225.2975 15.33768856    18

Śledź STARLINK-36255 w czasie rzeczywistym z AllMySat

Download on the App Store